[[{"header":{"parameterUnit":"m.s-1","parameterCategory":1,"la1":30.2991,"la2":30.254,"lo1":-89.0895,"lo2":-89.0444,"dy":0.0017,"dx":0.0017,"nx":28,"ny":28,"refTime":"2025-02-27T09:00:00:Z","depth":0,"parameterNumber":2,"parameterNumberName":"U-component_of_WINDS"},"data":[0,0,0,0,0,0,0,0,0,0,0,0,0,0,0,0,0,0,0,0,0,0,0,0,0,0,0,0,0,0,0,0,0,0,0,0,0,0,0,0,0,0,0,0,0,0,0,0,0,0,0,0,0,0,0,0,0,0,-0.4056,-0.4054,0,-0.3915,-0.3913,-0.3912,-0.3875,-0.3876,-0.3877,-0.3878,-0.3733,-0.3729,-0.3724,0,0,0,0,0,0,0,0,0,0,0,0,0,-0.4296,-0.4292,-0.4056,-0.4054,-0.4052,-0.3915,-0.3913,-0.3911,-0.3875,-0.3876,-0.3877,-0.3878,-0.3735,-0.3729,-0.3724,0,0,0,0,0,0,0,0,0,0,0,0,0,-0.4177,-0.429,-0.4056,-0.4018,-0.4013,-0.3916,-0.3913,-0.3911,-0.3875,-0.3876,-0.3878,-0.3879,-0.3737,-0.373,-0.3723,-0.3653,0,0,-0.3701,-0.3698,0,0,0,0,0,0,0,0,-0.4184,-0.4168,-0.4025,-0.402,-0.4015,-0.3914,-0.3945,-0.3824,-0.3875,-0.3927,-0.3878,-0.3879,-0.3792,-0.3781,-0.3751,-0.3647,-0.364,-0.3701,-0.3697,-0.3694,-0.3692,0,0,0,0,0,0,0,-0.4192,-0.4174,-0.4,-0.4023,-0.4017,-0.4008,-0.3993,-0.3922,-0.3854,-0.3923,-0.392,-0.3904,-0.379,-0.3758,-0.3748,-0.3638,-0.3701,-0.3695,-0.3691,-0.3688,-0.3472,-0.347,0,0,0,0,0,0,-0.4207,-0.4181,-0.4005,-0.3996,-0.4104,-0.4003,-0.3986,-0.3945,-0.3855,-0.3842,-0.3903,-0.3903,-0.377,-0.3756,-0.3743,-0.3656,-0.3694,-0.3687,-0.3683,-0.3473,-0.3471,-0.347,0,0,0,0,0,0,-0.4212,-0.4191,-0.401,-0.4088,-0.4064,-0.3997,-0.3952,-0.3942,-0.391,-0.384,-0.3828,-0.3883,-0.377,-0.3752,-0.3676,-0.3651,-0.3684,-0.3678,-0.3475,-0.3473,-0.347,-0.3482,0,0,0,0,0,0,-0.4219,-0.4193,-0.4166,-0.4087,-0.406,-0.3946,-0.395,-0.3938,-0.3898,-0.3897,-0.3818,-0.3806,-0.377,-0.3687,-0.3669,-0.3642,-0.3672,-0.3477,-0.3474,-0.3471,-0.3484,-0.3481,-0.3478,0,0,0,0,0,-0.4228,-0.4174,-0.4164,-0.4143,-0.4024,-0.3944,-0.3929,-0.3888,-0.3896,-0.3868,-0.3824,-0.3809,-0.3657,-0.3679,-0.3659,-0.3629,-0.3478,-0.3475,-0.3471,-0.3485,-0.3481,-0.3478,0,0,0,0,0,0,-0.425,-0.4163,-0.4151,-0.4071,-0.4015,-0.3938,-0.3901,-0.3885,-0.3826,-0.3827,-0.3779,-0.3762,-0.3689,-0.3652,-0.3679,-0.3558,-0.3568,-0.356,-0.3585,-0.3581,-0.3578,-0.3588,-0.3666,0,0,0,0,0,-0.4246,-0.4188,-0.4115,-0.4051,-0.4024,-0.3968,-0.3932,-0.3906,-0.3846,-0.3823,-0.3772,-0.3715,-0.3655,-0.3616,-0.3556,-0.3479,-0.3462,-0.3449,-0.3446,-0.3444,-0.3437,-0.3395,-0.3389,-0.3458,-0.3458,-0.3458,0,0,-0.4236,-0.4181,-0.4148,-0.4055,-0.4009,-0.3951,-0.3948,-0.3887,-0.3843,-0.3813,-0.3738,-0.37,-0.3633,-0.3557,-0.3521,-0.3523,-0.3415,-0.3439,-0.3438,-0.3432,-0.3391,-0.3385,-0.3379,-0.3456,-0.3456,-0.3457,0,0,-0.4188,-0.4141,-0.4083,-0.4038,-0.3969,-0.3932,-0.3919,-0.3844,-0.3818,-0.3742,-0.3719,-0.3668,-0.3564,-0.3518,-0.3481,-0.342,-0.3405,-0.3403,-0.3386,-0.3346,-0.3341,-0.3336,-0.3314,-0.3307,-0.3397,-0.3397,-0.3397,0,-0.4184,-0.4096,-0.4055,-0.3995,-0.3956,-0.3927,-0.3869,-0.3827,-0.3742,-0.3715,-0.372,-0.3591,-0.3544,-0.3458,-0.3443,-0.3414,-0.3398,-0.341,-0.3345,-0.3339,-0.3334,-0.3313,-0.3305,-0.3397,-0.3397,-0.3397,-0.3397,0,-0.4095,-0.4035,-0.3996,-0.3916,-0.3872,-0.3813,-0.3765,-0.3725,-0.3704,-0.3668,-0.3592,-0.3536,-0.3465,-0.3443,-0.3421,-0.3353,-0.3358,-0.3354,-0.3362,-0.3328,-0.3308,-0.33,-0.3397,-0.3397,-0.3397,-0.3397,0,0,-0.4055,-0.3955,-0.3942,-0.3906,-0.3829,-0.3781,-0.3723,-0.3654,-0.3622,-0.3565,-0.3515,-0.343,-0.3427,-0.3386,-0.3359,-0.3323,-0.328,-0.3324,-0.3322,-0.3318,-0.3204,-0.3207,-0.3198,-0.327,-0.3269,-0.3267,-0.321,0,-0.3998,-0.389,-0.3854,-0.3765,-0.371,-0.3683,-0.3632,-0.358,-0.3545,-0.3494,-0.3455,-0.3396,-0.3396,-0.3371,-0.3335,-0.3293,-0.3256,-0.3297,-0.3223,-0.3221,-0.324,-0.3187,-0.3189,-0.3137,-0.3201,-0.32,-0.3199,0,-0.3915,-0.3859,-0.3765,-0.3698,-0.3673,-0.3627,-0.3563,-0.3514,-0.3455,-0.3433,-0.3388,-0.3364,-0.3303,-0.3317,-0.3232,-0.326,-0.3229,-0.3204,-0.3201,-0.3192,-0.3207,-0.3177,-0.3119,-0.3112,-0.3186,-0.3187,-0.3188,0,-0.3896,-0.3796,-0.3728,-0.3698,-0.3617,-0.3586,-0.3551,-0.3494,-0.3456,-0.34,-0.3376,-0.3313,-0.3279,-0.3232,-0.3193,-0.3206,-0.3113,-0.3122,-0.3093,-0.3094,-0.3073,-0.3074,-0.301,-0.3053,-0.3053,-0.3054,-0.3054,0,-0.3835,-0.3779,-0.3718,-0.3676,-0.3613,-0.3573,-0.3512,-0.3475,-0.3425,-0.3376,-0.335,-0.3305,-0.3256,-0.3205,-0.3175,-0.311,-0.3095,-0.3075,-0.3068,-0.3077,-0.308,-0.3055,-0.3058,-0.3051,-0.3052,-0.3052,-0.3053,0,-0.3802,-0.3759,-0.3683,-0.3614,-0.3595,-0.3552,-0.3493,-0.3452,-0.3417,-0.3356,-0.3339,-0.3285,-0.3223,-0.318,-0.3101,-0.3081,-0.3012,-0.3004,-0.3031,-0.3027,-0.3,-0.3003,-0.2917,-0.2904,-0.2957,-0.2956,-0.2956,0,-0.3765,-0.3722,-0.3649,-0.3615,-0.358,-0.3525,-0.3486,-0.3446,-0.3407,-0.3339,-0.3306,-0.3244,-0.3191,-0.3095,-0.3049,-0.2989,-0.298,-0.2954,-0.2971,-0.2982,-0.298,-0.2983,-0.2979,-0.2951,-0.2951,-0.295,-0.295,0,-0.3706,-0.3688,-0.3633,-0.3572,-0.3528,-0.3477,-0.3427,-0.3401,-0.3351,-0.331,-0.3247,-0.3207,-0.3127,-0.3066,-0.3002,-0.2967,-0.2951,-0.2946,-0.2936,-0.2944,-0.2962,-0.2953,-0.3024,-0.2947,-0.2948,-0.2948,-0.2948,-0.2948,-0.367,-0.3631,-0.3574,-0.3515,-0.3473,-0.3427,-0.3386,-0.3347,-0.3294,-0.3226,-0.3206,-0.3142,-0.3087,-0.3,-0.2964,-0.2914,-0.2916,-0.2901,-0.2897,-0.2894,-0.2895,-0.2971,-0.2902,-0.2902,-0.2902,-0.2902,-0.2902,0,-0.3609,-0.3572,-0.3518,-0.3449,-0.3404,-0.3394,-0.3338,-0.3301,-0.3244,-0.3195,-0.3144,-0.3074,-0.3015,-0.2965,-0.2905,-0.2874,-0.2865,-0.286,-0.2861,-0.2854,-0.2896,-0.2911,-0.2868,-0.2868,-0.2868,-0.2868,-0.2868,-0.2868,-0.3572,-0.3506,-0.3481,-0.3395,-0.3358,-0.3295,-0.3264,-0.3223,-0.3183,-0.3106,-0.3057,-0.3025,-0.2976,-0.2912,-0.2858,-0.2845,-0.2824,-0.2821,-0.2806,-0.2846,-0.285,-0.2854,-0.2868,-0.2816,-0.2816,-0.2767,-0.2767,-0.2767]},{"header":{"parameterUnit":"m.s-1","parameterCategory":1,"la1":30.2991,"la2":30.254,"lo1":-89.0895,"lo2":-89.0444,"dy":0.0017,"dx":0.0017,"nx":28,"ny":28,"refTime":"2025-02-27T09:00:00:Z","depth":0,"parameterNumber":3,"parameterNumberName":"V-component_of_WINDS"},"data":[0,0,0,0,0,0,0,0,0,0,0,0,0,0,0,0,0,0,0,0,0,0,0,0,0,0,0,0,0,0,0,0,0,0,0,0,0,0,0,0,0,0,0,0,0,0,0,0,0,0,0,0,0,0,0,0,0,0,1.8853,1.8853,0,1.8813,1.8812,1.8812,1.8831,1.8832,1.8833,1.8834,1.8787,1.8785,1.8783,0,0,0,0,0,0,0,0,0,0,0,0,0,1.8943,1.8941,1.8853,1.8853,1.8852,1.8813,1.8812,1.8811,1.8831,1.8832,1.8834,1.8835,1.8788,1.8785,1.8782,0,0,0,0,0,0,0,0,0,0,0,0,0,1.8903,1.8941,1.8853,1.8857,1.8857,1.8813,1.8812,1.8811,1.8831,1.8832,1.8834,1.8835,1.8789,1.8785,1.8782,1.8729,0,0,1.8772,1.877,0,0,0,0,0,0,0,0,1.8905,1.89,1.8857,1.8857,1.8857,1.8829,1.8826,1.8784,1.883,1.8841,1.8834,1.8836,1.8799,1.8795,1.8784,1.8727,1.8725,1.8771,1.8769,1.8768,1.8767,0,0,0,0,0,0,0,1.8908,1.8902,1.8837,1.8857,1.8856,1.886,1.8856,1.8818,1.8811,1.884,1.8841,1.8836,1.8799,1.8787,1.8783,1.8724,1.8771,1.8768,1.8766,1.8765,1.8621,1.862,0,0,0,0,0,0,1.8911,1.8904,1.8838,1.8836,1.8886,1.8857,1.8852,1.8836,1.8812,1.881,1.8835,1.8838,1.8792,1.8787,1.8781,1.8717,1.8768,1.8765,1.8763,1.8623,1.8621,1.8619,0,0,0,0,0,0,1.8913,1.8905,1.884,1.887,1.8862,1.8853,1.8835,1.8834,1.8822,1.8808,1.8807,1.8824,1.8793,1.8786,1.8742,1.8715,1.8763,1.876,1.8625,1.8622,1.862,1.8588,0,0,0,0,0,0,1.8916,1.8906,1.8887,1.887,1.886,1.8803,1.8833,1.8832,1.8817,1.882,1.8797,1.8795,1.8794,1.8747,1.8739,1.8712,1.8758,1.8628,1.8624,1.8621,1.8592,1.8585,1.8579,0,0,0,0,0,1.8919,1.8879,1.8886,1.8878,1.8837,1.8802,1.8796,1.8797,1.8815,1.8795,1.8786,1.8796,1.872,1.8743,1.8733,1.8705,1.8629,1.8625,1.8621,1.8594,1.8586,1.8579,0,0,0,0,0,0,1.8891,1.8876,1.8884,1.8838,1.8821,1.8805,1.878,1.8788,1.8764,1.8768,1.8768,1.8763,1.8717,1.8707,1.8732,1.8652,1.8677,1.8671,1.866,1.8652,1.8646,1.8648,1.8755,0,0,0,0,0,1.888,1.8854,1.8842,1.8802,1.8793,1.8788,1.8773,1.8775,1.8757,1.8749,1.8737,1.8717,1.8689,1.867,1.8644,1.8591,1.8585,1.8567,1.8561,1.8555,1.8549,1.8519,1.851,1.8606,1.8606,1.8606,0,0,1.8855,1.8844,1.8828,1.8796,1.8783,1.8755,1.8782,1.8751,1.8729,1.8744,1.8702,1.8692,1.8671,1.8622,1.86,1.8612,1.8522,1.855,1.8546,1.8543,1.8514,1.8505,1.8497,1.8603,1.8603,1.8604,0,0,1.8796,1.8786,1.8751,1.8738,1.872,1.8716,1.8708,1.8691,1.8686,1.8645,1.8655,1.8628,1.858,1.8564,1.8549,1.8485,1.8493,1.8476,1.8442,1.8413,1.8405,1.8399,1.8374,1.8365,1.8471,1.8471,1.8471,0,1.8767,1.8727,1.8732,1.87,1.8685,1.87,1.8663,1.865,1.8622,1.8611,1.8626,1.8565,1.8552,1.8499,1.8483,1.8471,1.846,1.8478,1.8407,1.84,1.8394,1.837,1.8361,1.8469,1.8469,1.8469,1.8469,0,1.8692,1.8663,1.8637,1.8612,1.8595,1.856,1.8558,1.854,1.8544,1.8539,1.8495,1.848,1.845,1.8438,1.8441,1.8385,1.8393,1.8407,1.8432,1.8382,1.836,1.8351,1.8466,1.8467,1.8467,1.8468,0,0,1.8612,1.8591,1.8581,1.857,1.8551,1.8528,1.8494,1.8467,1.845,1.8431,1.8401,1.836,1.8373,1.8357,1.8358,1.8333,1.8281,1.835,1.8349,1.8336,1.8216,1.8204,1.8194,1.8287,1.8285,1.8284,1.8217,0,1.855,1.8492,1.8496,1.8441,1.8414,1.8428,1.8398,1.8382,1.8377,1.8351,1.8345,1.8315,1.8336,1.8326,1.8302,1.8292,1.8256,1.8297,1.8257,1.8255,1.826,1.8182,1.8169,1.8107,1.8209,1.8207,1.8206,0,1.8469,1.8449,1.8392,1.8377,1.8366,1.8339,1.8314,1.8291,1.8272,1.827,1.8252,1.8258,1.8222,1.825,1.8199,1.8227,1.821,1.8203,1.8201,1.8195,1.8226,1.8172,1.8088,1.8077,1.8193,1.8194,1.8195,0,1.8414,1.8373,1.8334,1.8324,1.8305,1.8286,1.8277,1.8261,1.8244,1.8222,1.8211,1.8184,1.8169,1.8147,1.8145,1.8166,1.8093,1.8121,1.8088,1.8087,1.807,1.807,1.7979,1.8063,1.8063,1.8063,1.8063,0,1.8343,1.8307,1.8309,1.8284,1.8243,1.8248,1.8207,1.82,1.8185,1.8158,1.8169,1.8142,1.8142,1.8115,1.8113,1.807,1.8063,1.8059,1.8058,1.8057,1.8057,1.8044,1.8048,1.8061,1.8061,1.8062,1.8062,0,1.8274,1.8274,1.8231,1.8218,1.8214,1.8185,1.8172,1.8148,1.8145,1.811,1.8102,1.8095,1.8063,1.806,1.8023,1.8021,1.7969,1.7974,1.7975,1.7975,1.7942,1.7944,1.7837,1.7823,1.7918,1.7917,1.7917,0,1.8228,1.8201,1.8185,1.8169,1.8159,1.8133,1.8116,1.8119,1.8101,1.8079,1.8056,1.8027,1.8003,1.7951,1.7942,1.7913,1.7916,1.7881,1.7912,1.7911,1.7913,1.7914,1.791,1.7874,1.7873,1.7872,1.7871,0,1.8145,1.8146,1.8123,1.81,1.808,1.8062,1.8044,1.8029,1.803,1.8009,1.7978,1.796,1.7923,1.7892,1.7864,1.7853,1.7861,1.7862,1.7853,1.7849,1.7851,1.7848,1.7957,1.7864,1.7865,1.7865,1.7866,1.7866,1.8084,1.806,1.8046,1.802,1.8007,1.7991,1.7967,1.7961,1.7936,1.7907,1.7911,1.7876,1.7858,1.7821,1.7808,1.778,1.7791,1.7778,1.7774,1.777,1.7766,1.7857,1.7775,1.7775,1.7775,1.7776,1.7776,0,1.8,1.7992,1.7968,1.7944,1.7923,1.7936,1.7917,1.7898,1.7868,1.7851,1.7828,1.7792,1.7762,1.7751,1.7722,1.7701,1.7704,1.7693,1.7693,1.769,1.7758,1.7769,1.7691,1.7691,1.7691,1.7691,1.7691,1.7691,1.7954,1.7914,1.7914,1.7868,1.7859,1.7827,1.7815,1.7799,1.7786,1.7745,1.7722,1.7716,1.7701,1.7671,1.7644,1.7641,1.7628,1.7615,1.7614,1.7677,1.7686,1.7694,1.7703,1.7613,1.7613,1.7548,1.7548,1.7547]}]]